Back to catalog

STARLINK-32723

AliveCommunicationsVLEO
NORAD 62449·PAYLOAD·🇺🇸 United States

Launched Dec 29, 2024 from Vandenberg Space Force Base

Loading…

Next Passes (next 24 hours)

TLE

FreshSource: CelesTrak SupGP

Epoch: Sep 14, 2026, 23:01 UTC

1 62449C 24251T   26257.95951389 -.00054484  00000+0 -16092-2 0  2573
2 62449  53.1566 173.2576 0001308  87.1405  51.8577 15.34427885    12

Track STARLINK-32723 in real time with AllMySat

Download on the App Store